Stündliche Wetter Aathal

Heute, 22 Juni, Dienstag

Zeit Temperatur Niederschläge Wind Luftdruck Luftfeuchtigkeit
00:00 +16°C° 0.3 mm 1 m/S 711 mmHg 98%
01:00 +16°C° 0 mm 1 m/S 711 mmHg 98%
02:00 +16°C° 0.1 mm 1 m/S 710 mmHg 97%
03:00 +15°C° 0.1 mm 0 m/S 710 mmHg 97%
04:00 +15°C° 0.1 mm 0 m/S 710 mmHg 96%
05:00 +16°C° 0.2 mm 0 m/S 710 mmHg 95%
06:00 +16°C° 0.2 mm 0 m/S 710 mmHg 94%
07:00 +17°C° 0.2 mm 0 m/S 710 mmHg 93%
08:00 +20°C° 0.3 mm 1 m/S 710 mmHg 89%
09:00 +20°C° 0.3 mm 1 m/S 711 mmHg 84%
10:00 +20°C° 0.3 mm 2 m/S 711 mmHg 80%
11:00 +21°C° 0.5 mm 2 m/S 711 mmHg 78%
12:00 +21°C° 0.5 mm 2 m/S 712 mmHg 75%
13:00 +21°C° 0.5 mm 2 m/S 712 mmHg 73%
14:00 +21°C° 0.4 mm 2 m/S 712 mmHg 76%
15:00 +21°C° 0.4 mm 2 m/S 712 mmHg 78%
16:00 +21°C° 0.4 mm 2 m/S 712 mmHg 81%
17:00 +21°C° 0.6 mm 1 m/S 712 mmHg 84%
18:00 +21°C° 0.6 mm 1 m/S 712 mmHg 86%
19:00 +18°C° 0.6 mm 0 m/S 713 mmHg 89%
20:00 +17°C° 1.2 mm 0 m/S 713 mmHg 91%
21:00 +18°C° 1.2 mm 1 m/S 713 mmHg 94%
22:00 +16°C° 1.2 mm 1 m/S 714 mmHg 96%
23:00 +16°C° 0.6 mm 1 m/S 714 mmHg 97%

Morgen, 23 Juni, Mittwoch

Zeit Temperatur Niederschläge Wind Luftdruck Luftfeuchtigkeit
00:00 +15°C° 0.6 mm 0 m/S 714 mmHg 97%
01:00 +14°C° 0.6 mm 0 m/S 714 mmHg 97%
02:00 +14°C° 0.8 mm 0 m/S 714 mmHg 98%
03:00 +15°C° 0.8 mm 1 m/S 714 mmHg 98%
04:00 +15°C° 0.8 mm 1 m/S 714 mmHg 98%
05:00 +16°C° 0.3 mm 1 m/S 715 mmHg 98%
06:00 +16°C° 0.3 mm 1 m/S 715 mmHg 97%
07:00 +16°C° 0.3 mm 1 m/S 715 mmHg 96%
08:00 +19°C° 0 mm 1 m/S 715 mmHg 86%
09:00 +21°C° 0 mm 1 m/S 715 mmHg 75%
10:00 +21°C° 0 mm 2 m/S 715 mmHg 64%
11:00 +24°C° 0.1 mm 2 m/S 715 mmHg 60%
12:00 +25°C° 0.1 mm 2 m/S 715 mmHg 57%
13:00 +26°C° 0.1 mm 3 m/S 714 mmHg 53%
14:00 +25°C° 0.2 mm 2 m/S 714 mmHg 56%
15:00 +25°C° 0.2 mm 2 m/S 714 mmHg 59%
16:00 +25°C° 0.2 mm 2 m/S 714 mmHg 63%
17:00 +23°C° 1.1 mm 2 m/S 714 mmHg 71%
18:00 +21°C° 1.1 mm 2 m/S 713 mmHg 80%
19:00 +19°C° 1.1 mm 2 m/S 713 mmHg 88%
20:00 +18°C° 3.6 mm 2 m/S 714 mmHg 91%
21:00 +17°C° 3.6 mm 2 m/S 715 mmHg 94%
22:00 +16°C° 3.6 mm 2 m/S 716 mmHg 97%
23:00 +15°C° 0.4 mm 2 m/S 715 mmHg 96%

übermorgen, 24 Juni, Donnerstag

Zeit Temperatur Niederschläge Wind Luftdruck Luftfeuchtigkeit
00:00 +15°C° 0.4 mm 1 m/S 715 mmHg 96%
01:00 +14°C° 0.4 mm 1 m/S 715 mmHg 95%
02:00 +14°C° 0 mm 1 m/S 714 mmHg 95%
03:00 +14°C° 0 mm 1 m/S 714 mmHg 95%
04:00 +13°C° 0 mm 1 m/S 714 mmHg 95%
05:00 +14°C° 0 mm 1 m/S 714 mmHg 94%
06:00 +15°C° 0 mm 1 m/S 714 mmHg 93%
07:00 +16°C° 0 mm 1 m/S 715 mmHg 92%
08:00 +18°C° 0.1 mm 1 m/S 715 mmHg 88%
09:00 +19°C° 0.1 mm 1 m/S 715 mmHg 83%
10:00 +20°C° 0.1 mm 1 m/S 715 mmHg 78%
11:00 +21°C° 0.1 mm 1 m/S 715 mmHg 73%
12:00 +23°C° 0.1 mm 1 m/S 715 mmHg 67%
13:00 +24°C° 0.1 mm 1 m/S 715 mmHg 62%
14:00 +23°C° 0.8 mm 1 m/S 714 mmHg 69%
15:00 +23°C° 0.8 mm 1 m/S 714 mmHg 76%
16:00 +21°C° 0.8 mm 2 m/S 713 mmHg 83%
17:00 +19°C° 5.2 mm 3 m/S 714 mmHg 88%
18:00 +17°C° 5.2 mm 4 m/S 714 mmHg 92%
19:00 +14°C° 5.2 mm 5 m/S 714 mmHg 96%
20:00 +14°C° 6.1 mm 4 m/S 715 mmHg 96%
21:00 +13°C° 6.1 mm 3 m/S 716 mmHg 97%
22:00 +13°C° 6.1 mm 3 m/S 717 mmHg 97%
23:00 +14°C° 0.8 mm 2 m/S 717 mmHg 96%

25 Juni, Freitag

Zeit Temperatur Niederschläge Wind Luftdruck Luftfeuchtigkeit
00:00 +14°C° 0.8 mm 1 m/S 717 mmHg 95%
01:00 +12°C° 0.8 mm 0 m/S 717 mmHg 95%
02:00 +12°C° 0.1 mm 0 m/S 717 mmHg 95%
03:00 +13°C° 0.1 mm 1 m/S 717 mmHg 95%
04:00 +13°C° 0.1 mm 1 m/S 717 mmHg 95%
05:00 +13°C° 0 mm 1 m/S 717 mmHg 94%
06:00 +14°C° 0 mm 1 m/S 717 mmHg 94%
07:00 +14°C° 0 mm 1 m/S 717 mmHg 93%
08:00 +15°C° 0 mm 1 m/S 717 mmHg 88%
09:00 +16°C° 0 mm 1 m/S 717 mmHg 83%
10:00 +17°C° 0 mm 2 m/S 717 mmHg 77%
11:00 +18°C° 0.1 mm 2 m/S 717 mmHg 74%
12:00 +19°C° 0.1 mm 2 m/S 717 mmHg 70%
13:00 +19°C° 0.1 mm 2 m/S 717 mmHg 67%
14:00 +20°C° 0.2 mm 2 m/S 717 mmHg 67%
15:00 +21°C° 0.2 mm 1 m/S 717 mmHg 66%
16:00 +21°C° 0.2 mm 1 m/S 717 mmHg 66%
17:00 +20°C° 0.2 mm 1 m/S 717 mmHg 73%
18:00 +20°C° 0.2 mm 1 m/S 717 mmHg 79%
19:00 +19°C° 0.2 mm 1 m/S 717 mmHg 85%
20:00 +16°C° 0.1 mm 1 m/S 717 mmHg 88%
21:00 +15°C° 0.1 mm 1 m/S 718 mmHg 91%
22:00 +14°C° 0.1 mm 1 m/S 718 mmHg 94%
23:00 +14°C° 0 mm 1 m/S 718 mmHg 94%

26 Juni, Samstag

Zeit Temperatur Niederschläge Wind Luftdruck Luftfeuchtigkeit
00:00 +13°C° 0 mm 1 m/S 717 mmHg 95%
01:00 +13°C° 0 mm 1 m/S 717 mmHg 95%
02:00 +11°C° 0 mm 0 m/S 717 mmHg 95%
03:00 +11°C° 0 mm 0 m/S 717 mmHg 95%
04:00 +11°C° 0 mm 0 m/S 717 mmHg 95%
05:00 +12°C° 0 mm 0 m/S 717 mmHg 93%
06:00 +13°C° 0 mm 0 m/S 717 mmHg 91%
07:00 +14°C° 0 mm 0 m/S 717 mmHg 89%
08:00 +18°C° 0 mm 1 m/S 717 mmHg 81%
09:00 +20°C° 0 mm 1 m/S 717 mmHg 73%
10:00 +21°C° 0 mm 2 m/S 717 mmHg 65%
11:00 +23°C° 0 mm 2 m/S 717 mmHg 61%
12:00 +24°C° 0 mm 2 m/S 717 mmHg 56%
13:00 +25°C° 0 mm 2 m/S 716 mmHg 52%
14:00 +25°C° 0 mm 2 m/S 716 mmHg 52%
15:00 +26°C° 0 mm 2 m/S 716 mmHg 52%
16:00 +26°C° 0 mm 2 m/S 716 mmHg 52%
17:00 +25°C° 0 mm 2 m/S 716 mmHg 60%
18:00 +24°C° 0 mm 1 m/S 716 mmHg 69%
19:00 +23°C° 0 mm 1 m/S 716 mmHg 78%
20:00 +21°C° 0 mm 1 m/S 716 mmHg 82%
21:00 +19°C° 0 mm 1 m/S 716 mmHg 87%
22:00 +16°C° 0 mm 1 m/S 716 mmHg 92%
23:00 +16°C° 0 mm 1 m/S 716 mmHg 93%

27 Juni, Sonntag

Zeit Temperatur Niederschläge Wind Luftdruck Luftfeuchtigkeit
00:00 +16°C° 0 mm 1 m/S 716 mmHg 93%
01:00 +15°C° 0 mm 1 m/S 716 mmHg 93%
02:00 +15°C° 0 mm 1 m/S 716 mmHg 93%
03:00 +15°C° 0 mm 1 m/S 716 mmHg 92%
04:00 +15°C° 0 mm 1 m/S 715 mmHg 92%
05:00 +15°C° 0 mm 0 m/S 716 mmHg 88%
06:00 +16°C° 0 mm 0 m/S 716 mmHg 85%
07:00 +17°C° 0 mm 0 m/S 716 mmHg 81%
08:00 +19°C° 0 mm 0 m/S 716 mmHg 74%
09:00 +21°C° 0 mm 0 m/S 717 mmHg 67%
10:00 +25°C° 0 mm 1 m/S 717 mmHg 60%
11:00 +26°C° 0 mm 1 m/S 717 mmHg 55%
12:00 +27°C° 0 mm 2 m/S 717 mmHg 49%
13:00 +28°C° 0 mm 2 m/S 717 mmHg 43%
14:00 +29°C° 0 mm 2 m/S 717 mmHg 43%
15:00 +29°C° 0 mm 2 m/S 717 mmHg 43%
16:00 +29°C° 0 mm 2 m/S 717 mmHg 43%
17:00 +28°C° 0 mm 1 m/S 717 mmHg 52%
18:00 +26°C° 0 mm 1 m/S 717 mmHg 61%
19:00 +23°C° 0 mm 0 m/S 717 mmHg 71%
20:00 +23°C° 0 mm 1 m/S 717 mmHg 73%
21:00 +22°C° 0 mm 1 m/S 717 mmHg 76%
22:00 +20°C° 0 mm 1 m/S 717 mmHg 78%
23:00 +19°C° 0 mm 1 m/S 717 mmHg 78%
Mehr zeigen

Wir brauchen deine Erlaubnis

Meteoprog und unser Service Anbieter werden persönliche Daten aufbewahren, so wie Cookies, Geräte Bezeichnung oder ähnliche Technologien von deinem Gerät und Prozess, so wie Persönliche Daten Inhalte und Werbungen, genauso wie social Media und den Verkehr zu analysieren.

  • Aufbewahrung und/oder Zugang zu deiner Geräte Informationen.

    Cookies, Geräte Bezeichnung oder andere Informationen, können aufbewahrt oder Zugang zu deinem Gerät erhalten, für den Grund, der oben angegeben wird.

  • Personalisierte Werbung und Inhalte, Messungen, Einblick in das Publikum und Produkt Entwicklung.

    Werbungen und Inhalte können personalisiert werden, basierend auf ein Profil. Mehr Daten können besser personalisierte Werbungen und Inhalte hinzufügen. Werbung und Inhalte können gezeigt und gemessen werden. Einblicke über das Publikum, welche die Werbung gesehen haben und den Inhalt, können abgeleitet werden. So wie Daten können genutzt werden, um es zu verbessern oder die Benutzer Erfahrung zu verbessern das System und die Software.

Wenn du “Ich stimme zu” klickst, erlaubst du uns, die Cookies zu benutzen die Geräte Bezeichnung, den Web oder ähnliche Technologien zu benutzen. Deine Settings, können in deinem Gerät bei deinem Browser geändert werden.

Für den bestimmten Zweck, berechtigten Interessen beruhen darauf, mehr als auf den Inhalt. Du kannst mehr darüber in unseren Privaten und Cookie Politik lesen.